• In United Kingdom
  • List of Countries
  • For 7 days
  • Water Temperature
  • Satellite Maps
  • Weather Map
  • Weather Widgets
  • user-avatar
    Login

    Hourly Weather Senaki

    Today, 17 August, Thursday

    Time Temperature Precipitation Wind Pressure Humidity
    00:00 +26°C° 0.1 mm 2 mps 757 mmHg 74%
    01:00 +26°C° 0 mm 2 mps 757 mmHg 68%
    02:00 +26°C° 0 mm 2 mps 756 mmHg 63%
    03:00 +26°C° 0 mm 2 mps 756 mmHg 57%
    04:00 +26°C° 0 mm 3 mps 756 mmHg 55%
    05:00 +26°C° 0 mm 3 mps 756 mmHg 54%
    06:00 +26°C° 0 mm 3 mps 756 mmHg 52%
    07:00 +28°C° 0 mm 3 mps 756 mmHg 49%
    08:00 +30°C° 0 mm 3 mps 756 mmHg 45%
    09:00 +33°C° 0 mm 4 mps 755 mmHg 42%
    10:00 +34°C° 0 mm 3 mps 755 mmHg 40%
    11:00 +35°C° 0 mm 3 mps 755 mmHg 38%
    12:00 +36°C° 0 mm 3 mps 755 mmHg 36%
    13:00 +37°C° 0 mm 3 mps 755 mmHg 37%
    14:00 +37°C° 0 mm 2 mps 754 mmHg 37%
    15:00 +37°C° 0 mm 2 mps 754 mmHg 37%
    16:00 +36°C° 0.1 mm 2 mps 754 mmHg 44%
    17:00 +34°C° 0.1 mm 2 mps 755 mmHg 51%
    18:00 +32°C° 0.1 mm 2 mps 755 mmHg 58%
    19:00 +30°C° 0 mm 2 mps 755 mmHg 61%
    20:00 +29°C° 0 mm 2 mps 755 mmHg 64%
    21:00 +27°C° 0 mm 2 mps 756 mmHg 67%
    22:00 +27°C° 0 mm 2 mps 756 mmHg 67%
    23:00 +26°C° 0 mm 2 mps 756 mmHg 67%

    Tomorrow, 18 August, Friday

    Time Temperature Precipitation Wind Pressure Humidity
    00:00 +26°C° 0 mm 2 mps 756 mmHg 66%
    01:00 +25°C° 0 mm 2 mps 756 mmHg 65%
    02:00 +25°C° 0 mm 2 mps 756 mmHg 64%
    03:00 +25°C° 0 mm 2 mps 756 mmHg 63%
    04:00 +25°C° 0 mm 2 mps 756 mmHg 63%
    05:00 +25°C° 0 mm 2 mps 756 mmHg 63%
    06:00 +24°C° 0 mm 2 mps 756 mmHg 62%
    07:00 +27°C° 0 mm 2 mps 756 mmHg 57%
    08:00 +29°C° 0 mm 2 mps 756 mmHg 51%
    09:00 +32°C° 0 mm 1 mps 756 mmHg 45%
    10:00 +33°C° 0 mm 1 mps 756 mmHg 42%
    11:00 +35°C° 0 mm 1 mps 756 mmHg 39%
    12:00 +36°C° 0 mm 1 mps 755 mmHg 36%
    13:00 +37°C° 0 mm 2 mps 755 mmHg 38%
    14:00 +37°C° 0 mm 3 mps 755 mmHg 40%
    15:00 +36°C° 0 mm 3 mps 755 mmHg 42%
    16:00 +35°C° 0.1 mm 3 mps 756 mmHg 51%
    17:00 +32°C° 0.1 mm 2 mps 756 mmHg 60%
    18:00 +31°C° 0.1 mm 2 mps 756 mmHg 70%
    19:00 +29°C° 0 mm 2 mps 757 mmHg 75%
    20:00 +28°C° 0 mm 2 mps 757 mmHg 81%
    21:00 +26°C° 0 mm 1 mps 758 mmHg 87%
    22:00 +26°C° 0.1 mm 1 mps 758 mmHg 84%
    23:00 +26°C° 0.1 mm 2 mps 758 mmHg 82%

    Day after tomorrow, 19 August, Saturday

    Time Temperature Precipitation Wind Pressure Humidity
    00:00 +26°C° 0.1 mm 2 mps 758 mmHg 79%
    01:00 +25°C° 0 mm 2 mps 758 mmHg 75%
    02:00 +25°C° 0 mm 2 mps 758 mmHg 72%
    03:00 +25°C° 0 mm 2 mps 758 mmHg 68%
    04:00 +25°C° 0 mm 2 mps 758 mmHg 66%
    05:00 +25°C° 0 mm 2 mps 758 mmHg 63%
    06:00 +25°C° 0 mm 2 mps 758 mmHg 61%
    07:00 +27°C° 0 mm 2 mps 758 mmHg 54%
    08:00 +30°C° 0 mm 1 mps 758 mmHg 47%
    09:00 +33°C° 0 mm 1 mps 758 mmHg 40%
    10:00 +34°C° 0 mm 1 mps 758 mmHg 37%
    11:00 +36°C° 0 mm 1 mps 758 mmHg 33%
    12:00 +39°C° 0 mm 2 mps 757 mmHg 30%
    13:00 +38°C° 0 mm 2 mps 757 mmHg 31%
    14:00 +38°C° 0 mm 2 mps 757 mmHg 32%
    15:00 +38°C° 0 mm 3 mps 757 mmHg 32%
    16:00 +36°C° 0 mm 2 mps 757 mmHg 42%
    17:00 +34°C° 0 mm 2 mps 757 mmHg 51%
    18:00 +32°C° 0 mm 2 mps 757 mmHg 61%
    19:00 +30°C° 0 mm 2 mps 758 mmHg 64%
    20:00 +28°C° 0 mm 1 mps 758 mmHg 68%
    21:00 +27°C° 0 mm 1 mps 759 mmHg 72%
    22:00 +26°C° 0 mm 1 mps 759 mmHg 69%
    23:00 +26°C° 0 mm 2 mps 759 mmHg 66%

    20 August, Sunday

    Time Temperature Precipitation Wind Pressure Humidity
    00:00 +26°C° 0 mm 2 mps 759 mmHg 63%
    01:00 +26°C° 0 mm 2 mps 759 mmHg 59%
    02:00 +25°C° 0 mm 2 mps 759 mmHg 54%
    03:00 +25°C° 0 mm 2 mps 759 mmHg 50%
    04:00 +25°C° 0 mm 2 mps 759 mmHg 49%
    05:00 +25°C° 0 mm 2 mps 759 mmHg 48%
    06:00 +25°C° 0 mm 2 mps 759 mmHg 47%
    07:00 +27°C° 0 mm 2 mps 758 mmHg 42%
    08:00 +30°C° 0 mm 2 mps 758 mmHg 38%
    09:00 +33°C° 0 mm 1 mps 758 mmHg 33%
    10:00 +36°C° 0 mm 2 mps 758 mmHg 30%
    11:00 +37°C° 0 mm 2 mps 757 mmHg 27%
    12:00 +39°C° 0 mm 2 mps 757 mmHg 24%
    13:00 +39°C° 0 mm 2 mps 757 mmHg 26%
    14:00 +39°C° 0 mm 3 mps 757 mmHg 27%
    15:00 +38°C° 0 mm 3 mps 756 mmHg 28%
    16:00 +36°C° 0 mm 3 mps 757 mmHg 38%
    17:00 +34°C° 0 mm 2 mps 757 mmHg 47%
    18:00 +31°C° 0 mm 2 mps 757 mmHg 57%
    19:00 +30°C° 0 mm 2 mps 757 mmHg 61%
    20:00 +28°C° 0 mm 1 mps 758 mmHg 65%
    21:00 +26°C° 0 mm 1 mps 759 mmHg 69%
    22:00 +26°C° 0 mm 1 mps 759 mmHg 66%
    23:00 +26°C° 0 mm 2 mps 759 mmHg 63%

    21 August, Monday

    Time Temperature Precipitation Wind Pressure Humidity
    00:00 +25°C° 0 mm 2 mps 759 mmHg 60%
    01:00 +25°C° 0 mm 2 mps 759 mmHg 56%
    02:00 +25°C° 0 mm 2 mps 759 mmHg 52%
    03:00 +25°C° 0 mm 2 mps 759 mmHg 48%
    04:00 +24°C° 0 mm 2 mps 759 mmHg 46%
    05:00 +24°C° 0 mm 2 mps 759 mmHg 44%
    06:00 +24°C° 0 mm 2 mps 759 mmHg 42%
    07:00 +27°C° 0 mm 2 mps 758 mmHg 39%
    08:00 +30°C° 0 mm 1 mps 758 mmHg 35%
    09:00 +33°C° 0 mm 1 mps 758 mmHg 31%
    10:00 +35°C° 0 mm 1 mps 757 mmHg 29%
    11:00 +36°C° 0 mm 1 mps 757 mmHg 26%
    12:00 +39°C° 0 mm 1 mps 757 mmHg 24%
    13:00 +39°C° 0 mm 2 mps 756 mmHg 25%
    14:00 +39°C° 0 mm 2 mps 756 mmHg 25%
    15:00 +39°C° 0 mm 3 mps 755 mmHg 25%
    16:00 +37°C° 0 mm 2 mps 755 mmHg 34%
    17:00 +35°C° 0 mm 2 mps 755 mmHg 43%
    18:00 +32°C° 0 mm 2 mps 756 mmHg 52%
    19:00 +30°C° 0 mm 2 mps 756 mmHg 54%
    20:00 +29°C° 0 mm 2 mps 757 mmHg 55%
    21:00 +27°C° 0 mm 2 mps 757 mmHg 57%
    22:00 +27°C° 0 mm 2 mps 757 mmHg 55%
    23:00 +26°C° 0 mm 2 mps 757 mmHg 54%

    22 August, Tuesday

    Time Temperature Precipitation Wind Pressure Humidity
    00:00 +26°C° 0 mm 2 mps 757 mmHg 53%
    01:00 +26°C° 0 mm 2 mps 757 mmHg 50%
    02:00 +26°C° 0 mm 2 mps 757 mmHg 48%
    03:00 +25°C° 0 mm 2 mps 757 mmHg 46%
    04:00 +25°C° 0 mm 2 mps 757 mmHg 45%
    05:00 +25°C° 0 mm 2 mps 757 mmHg 45%
    06:00 +25°C° 0 mm 2 mps 757 mmHg 44%
    07:00 +27°C° 0 mm 1 mps 757 mmHg 41%
    08:00 +30°C° 0 mm 1 mps 757 mmHg 38%
    09:00 +33°C° 0 mm 1 mps 757 mmHg 35%
    10:00 +34°C° 0 mm 1 mps 756 mmHg 33%
    11:00 +36°C° 0 mm 2 mps 756 mmHg 31%
    12:00 +37°C° 0 mm 2 mps 756 mmHg 29%
    13:00 +37°C° 0 mm 2 mps 756 mmHg 33%
    14:00 +37°C° 0 mm 3 mps 756 mmHg 36%
    15:00 +36°C° 0 mm 3 mps 756 mmHg 40%
    16:00 +35°C° 0 mm 3 mps 756 mmHg 50%
    17:00 +33°C° 0 mm 3 mps 756 mmHg 61%
    18:00 +30°C° 0 mm 2 mps 756 mmHg 71%
    19:00 +29°C° 0 mm 2 mps 757 mmHg 79%
    20:00 +27°C° 0 mm 1 mps 757 mmHg 86%
    21:00 +25°C° 0 mm 1 mps 758 mmHg 94%
    22:00 +25°C° 0 mm 1 mps 758 mmHg 92%
    23:00 +25°C° 0 mm 1 mps 758 mmHg 90%
    Show more